{"data":{"norad_id":62109,"intl_designator":"2024-220X","name":"STARLINK-33556","alt_names":[],"object_type":"PAYLOAD","status":"ACTIVE","operator":null,"country":"US","launch_date":"2024-11-25","launch_site_code":"AFETR","launch_vehicle":null,"mission":null,"orbit_class":"UNKNOWN","rcs_meters":null,"size_class":null,"mass_kg":null,"dimensions":null,"purposes":["comms"],"wikipedia_slug":null,"has_3d_model":false,"image_url":null,"decayed_at":null,"tle_current":{"epoch":"2026-09-21T03:07:55.873056Z","epoch_age_seconds":127880,"freshness":"FRESH","line1":"1 62109U 24220X   26264.13050779  .00014402  00000+0  53168-3 0  9996","line2":"2 62109  42.9997 181.5959 0001066 282.0465  78.0267 15.27591205103100","mean_motion":15.27591205,"eccentricity":0.0001066,"inclination_deg":42.9997,"raan_deg":181.5959,"arg_perigee_deg":282.0465,"mean_anomaly_deg":78.0267,"bstar":0.00053168,"rev_number":10310,"period_min":94.266057259737,"perigee_km":482.28414558253,"apogee_km":483.746943305,"semimajor_km":6861.1525444438,"source":"CELESTRAK","updated_at":"2026-09-22T09:00:49.523001Z"}}}